LIBALIMJ

Guest
Details From LIBA - AMENDOLA
To LIMJ - Genova Sestri
Flight Number -
Tags generated
Created
Modified
Stats Distance 354 nm / 656 km
Max Altitude 0 ft / 0 m
Waypoints 7
Social Downloads 0
Likes 0
Share VATSIM

Download

Looking for another format? Having issues loading an existing format? Contact us
Advertisement - Login to hide

Notes

None

Route

LIBA PES UL168 PREKI UZ904 VALEN UM730 FRZ LIMJ

ID Type Via Altitude Latitude Longitude Leg Dist Tot Dist Heading (true) Name
O LIBA APT - 0 ft / 0 m 41.53956˚ 15.71387˚ - 0 nm - AMENDOLA
PES VOR - 0 ft / 0 m 42.43611˚ 14.18444˚ 86 nm 86 nm 309° / 308° PESCARA VOR-DME
PREKI FIX UL168 (AWY-HI) 0 ft / 0 m 42.87750˚ 13.11917˚ 54 nm 140 nm 300° / 299° -
VERNA FIX UZ904 (AWY-HI) 0 ft / 0 m 43.74222˚ 11.83167˚ 76 nm 217 nm 313° / 312° -
VALEN FIX UZ904 (AWY-HI) 0 ft / 0 m 43.93722˚ 11.53306˚ 17 nm 234 nm 312° / 312° -
FRZ VOR UM730 (AWY-HI) 0 ft / 0 m 44.02718˚ 11.00331˚ 23 nm 258 nm 283° / 283° FIRENZE VORTAC
O LIMJ APT - 0 ft / 0 m 44.41196˚ 8.84187˚ 95 nm 354 nm 285° / 283° Genova Sestri

Altitude Profile

Advertisement - Login to hide

Weather


0- 5 10 15 20 25 30 35+ Temperature / ° C

Clouds and Precipitation
Forecast for 2018-05-22 18:00 UTC. Updated an hour ago

Ground ~20,000 ft ~40,000 ft Winds

LIBA

Details ICAO LIBA
Name AMENDOLA
Region Italy
Timezone Europe/Rome (UTC+2.0)
Stats Elevation 183 ft / 56 m (AMSL)
Location 41.539558° 15.713874°
Runways 1
Magnetic Variation 3.637° E

METAR

LIBA 221755Z 04006KT 8000 TS FEW020CB SCT050 18/17 Q1014 RMK OVC BKN090 VIS MIN 8000 WIND THR11 05007KT WIND THR29 /////KT BLU

Decode

TAF

Not found

Departure Runways

ID Width Length Bearing (true) Bearing (mag) Surface Threshold Offset Overrun Length
11 144 ft / 44 m 8,712 ft / 2,655 m 113.80° 110.16° Asphalt 0 ft / 0 m 194 ft / 59 m
29 144 ft / 44 m 8,712 ft / 2,655 m 293.82° 290.18° Asphalt 0 ft / 0 m 198 ft / 60 m

LIMJ

Details ICAO LIMJ (GOA)
Name Genova Sestri
Region Italy
Timezone Unknown (UTC+0.0)
Stats Elevation 13 ft / 4 m (AMSL)
Location 44.411957° 8.841866°
Runways 1
Magnetic Variation 2.437° E

METAR

LIMJ 221750Z 14004KT 080V190 9999 SCT025 SCT060 19/16 Q1014

Decode

TAF

TAF LIMJ 221700Z 2218/2318 VRB05KT 9999 SCT025 SCT060 TEMPO 2218/2221 TSRA TEMPO 2310/2316 23010KT

Decode

Destination Runways

ID Width Length Bearing (true) Bearing (mag) Surface Threshold Offset Overrun Length
10 148 ft / 45 m 9,574 ft / 2,918 m 105.39° 102.95° Asphalt 0 ft / 0 m 0 ft / 0 m
28 148 ft / 45 m 9,574 ft / 2,918 m 285.41° 282.97° Asphalt 538 ft / 164 m 0 ft / 0 m

Approach Navaids

Runway Type Ident Frequency Range Bearing (true) Bearing (mag) Slope Elevation
28 Localiser GSE 109.30 MHz 18 nm / 33 km 287.30° 284.86° - 9 ft / 3 m (AMSL)
28 Glidescope GSE 109.30 MHz 10 nm / 19 km 287.30° 284.86° 3.17° 26 ft / 8 m (AMSL)
28 DME GSE 109.30 MHz 18 nm / 33 km - - - 26 ft / 8 m (AMSL)